Weather History for Galeao, Brazil

Change the Weather History Date:

Sunday, July 28, 2013

  Actual Average Record
Temperature  
Mean Temperature 68 °F -  
Max Temperature 77 °F 78 °F 93 °F (2006)
Min Temperature 58 °F 62 °F 57 °F (1997)
Cooling Degree Days 2    
Growing Degree Days 18 (Base 50)    
Moisture  
Dew Point 57 °F    
Average Humidity 72    
Maximum Humidity 94    
Minimum Humidity 35    
Precipitation  
Precipitation 0.00 in - - ()
Sea Level Pressure  
Sea Level Pressure 30.16 in    
Wind  
Wind Speed 4 mph ()    
Max Wind Speed 12 mph    
Max Gust Speed -    
Visibility 7.4 miles    
Events      
Averages and records for this station are not official NWS values.
T = Trace of Precipitation, MM = Missing Value Source: Averaged Metar Reports

Daily Weather History Graph

Daily Weather History Graph

Search for Another Location

Airport:

Trip Planner

Search our weather history database for the weather conditions in past years. The results will help you decide how hot, cold, wet, or windy it might be!

Date:

Astronomy

Jul. 28, 2013 Rise Set
Actual Time 6:28 AM BRT 5:30 PM BRT
Civil Twilight 6:05 AM BRT 5:54 PM BRT
Nautical Twilight 5:37 AM BRT 6:21 PM BRT
Astronomical Twilight 5:10 AM BRT 6:48 PM BRT
Moon 11:32 PM BRT (7/28) 10:27 AM BRT (7/28)
Length of Visible Light 11h 49m
Length of Day
11h 01m
Waning Gibbous, 61% of the Moon is Illuminated
Jul 28
Waning Gibbous
Jul 29
Last Quarter
Aug 6
New
Aug 14
First Quarter
Aug 20
Full

Hourly Weather History & Observations

Time (BRT) Temp. Dew Point Humidity Pressure Visibility Wind Dir Wind Speed Gust Speed Precip Events Conditions
12:00 AM 61 °F 57 °F 84% 30.21 in 12 mi West 2.3 mph - -  
12:00 AM 60.8 °F 57.2 °F 88% 30.18 in - West 2.3 mph - N/A   Clear
1:00 AM 60.8 °F 57.2 °F 88% 30.18 in - West 3.5 mph - N/A   Clear
2:00 AM 59.0 °F 55.4 °F 88% 30.15 in - Calm Calm - N/A   Clear
3:00 AM 60 °F 57 °F 87% 30.16 in 12 mi West 2.3 mph - -  
3:00 AM 59.0 °F 57.2 °F 94% 30.15 in - West 2.3 mph - N/A   Clear
4:00 AM 60.8 °F 57.2 °F 88% 30.12 in - West 5.8 mph - N/A   Clear
5:00 AM 59.0 °F 57.2 °F 94% 30.12 in - West 3.5 mph - N/A   Clear
6:00 AM 59 °F 57 °F 89% 30.17 in 12 mi West 4.6 mph - -  
6:00 AM 59.0 °F 57.2 °F 94% 30.15 in - West 4.6 mph - N/A   Clear
7:00 AM 60.8 °F 57.2 °F 88% 30.18 in 5.0 mi West 3.5 mph - N/A   Partly Cloudy
8:00 AM 66.2 °F 59.0 °F 78% 30.18 in 5.0 mi WSW 2.3 mph - N/A   Scattered Clouds
9:00 AM 67 °F 59 °F 67% 30.22 in 6 mi West 4.6 mph - -   Haze
9:00 AM 66.2 °F 59.0 °F 78% 30.21 in 5.6 mi West 4.6 mph - N/A   Scattered Clouds
10:00 AM 71.6 °F 57.2 °F 60% 30.21 in 6.2 mi WSW 3.5 mph - N/A   Scattered Clouds
11:00 AM 71.6 °F 57.2 °F 60% 30.18 in 6.2 mi SW 5.8 mph - N/A   Scattered Clouds
12:00 PM 74 °F 57 °F 45% 30.17 in 9 mi ESE 4.6 mph - -   Haze
12:00 PM 73.4 °F 57.2 °F 57% 30.15 in 6.2 mi ESE 4.6 mph - N/A   Scattered Clouds
1:00 PM 75.2 °F 55.4 °F 50% 30.12 in 6.2 mi SSE 3.5 mph - N/A   Scattered Clouds
2:00 PM 77.0 °F 55.4 °F 47% 30.09 in 6.2 mi SE 4.6 mph - N/A   Partly Cloudy
3:00 PM 77 °F 54 °F 35% 30.10 in 9 mi SSE 9.2 mph - -   Haze
3:00 PM 77.0 °F 55.4 °F 47% 30.09 in 6.2 mi SSE 9.2 mph - N/A   Partly Cloudy
4:00 PM 73.4 °F 57.2 °F 57% 30.09 in - SE 11.5 mph - N/A   Clear
5:00 PM 69.8 °F 57.2 °F 64% 30.12 in - SE 9.2 mph - N/A   Clear
6:00 PM 67 °F 58 °F 65% 30.14 in 9 mi SE 9.2 mph - -   Haze
6:00 PM 66.2 °F 57.2 °F 73% 30.12 in 6.2 mi SE 9.2 mph - N/A   Scattered Clouds
7:00 PM 66.2 °F 59.0 °F 78% 30.12 in 6.2 mi SSE 5.8 mph - N/A   Scattered Clouds
8:00 PM 66.2 °F 57.2 °F 73% 30.15 in 6.2 mi SSE 4.6 mph - N/A   Scattered Clouds
9:00 PM 67 °F 59 °F 70% 30.19 in 12 mi West 2.3 mph - -   Partly Cloudy
9:00 PM 66.2 °F 59.0 °F 78% 30.18 in 6.2 mi West 2.3 mph - N/A   Scattered Clouds
10:00 PM 66.2 °F 59.0 °F 78% 30.18 in 6.2 mi West 3.5 mph - N/A   Mostly Cloudy
11:00 PM 66.2 °F 59.0 °F 78% 30.18 in 6.2 mi West 4.6 mph - N/A   Mostly Cloudy